Terug naar catalogus

THORAD AGENA D DEB

ActiefLEO
NORAD 4155·DEBRIS·🇺🇸 United States

Gelanceerd Sep 30, 1969 vanaf Vandenberg Space Force Base

Loading…

Volgende Passages (komende 24 uur)

TLE

VersSource: Space-Track

Epoch: Sep 14, 2026, 07:13 UTC

1 04155U 69082X   26257.30127892  .00000564  00000-0  20032-3 0  9999
2 04155  70.0460 212.7039 0052828  68.0939 292.5794 14.38521436952368

Volg THORAD AGENA D DEB in realtime met AllMySat

Download on the App Store